www.pogodaiklimat.ru

Погода и климат >> Архив погоды >> Греция >> Karpathos


ПОГОДА в Karpathos

  • Прогноз погоды в Karpathos
  • Монитор погоды в Karpathos
  • Климат города

АРХИВ ПОГОДЫ в Karpathos

Время (UTC), дата Ветер
(напр.,м/с)
 
Видим.   Явления Облачность Т
(С)
Тd
(С)
f
(%)
Тe
(С)
Тes
(С)
Комфортность P
(гПа)
Po
(гПа)
Тmin
(С)
Tmax
(С)
R
(мм)
R24
(мм)
S
(см)
00 14.11 З 1
{3}
н/о н/о +16.1 +9.3 64 +17 +17 1016.3 1014.3
03 14.11 С 7
{11}
н/о н/о +17.6 +9.9 61 +17 +17 1015.1 1013.2
06 14.11 СЗ 11
{17}
10 км 1/1 300 м
[Cu med, cong]
+17.4 +8.4 55 +16 +16 1015.3 1015.0 +15.6
09 14.11 СЗ 13
{19}
10 км 1/1 300 м
[Cu med, cong]
+19.2 +10.1 56 +19 +19 1015.3 1015.0
12 14.11 СЗ 15
{23}
10 км 1/1 300 м
[Cu med, cong]
+19.2 +9.6 54 +19 +19 1013.8 1014.0
15 14.11 СЗ 17
{23}
10 км 3/3 300 м
[Cu med, cong]
+17.2 +9.9 62 +15 +15 1013.0 1013.0
18 14.11 СЗ 15
{23}
10 км 4/4 300 м
[Cu med, cong]
+17.4 +10.5 64 +15 +15 1013.1 1013.0 +19.5
21 14.11 СЗ 12
{22}
н/о н/о +17.2 +8.6 57 +16 +16 1013.9 1011.9
00 15.11 СЗ 10
{18}
н/о {осадки} н/о +16.7 +8.9 60 +15 +15 1014.4 1012.5 0.0
03 15.11 СЗ 11
{16}
н/о н/о +16.0 +8.5 61 +14 +14 1013.5 1011.5
06 15.11 СЗ 10
{17}
10 км 5/5 300 м
[Cu med, cong Ac lent]
+16.6 +8.6 59 +15 +15 1014.2 1014.0 +15.9
09 15.11 СЗ 12
{17}
10 км 3/3 300 м
[Cu med, cong Ac lent]
+18.0 +9.0 56 +17 +17 1014.4 1014.0
12 15.11 СЗ 11
{17}
10 км 5/5 300 м
[Cu med, cong]
+17.4 +7.5 52 +16 +16 1014.3 1014.0
15 15.11 СЗ 12
{19}
10 км 6/6 300 м
[Sc]
+16.2 +7.8 57 +14 +14 1014.2 1014.0
18 15.11 С 12
{17}
10 км 6/5 300 м
[Sc diur, vesp Ac lent]
+16.8 +8.5 58 +15 +15 1014.9 1015.0 +18.5
21 15.11 СЗ 12
{18}
н/о в посл. час осадки н/о +15.7 +6.6 55 +13 +13 1015.8 1013.8
00 16.11 СЗ 11
{20}
н/о осадки н/о +14.4 +6.8 60 +12 +12 1016.2 1014.2 0.0
03 16.11 СЗ 11
{15}
н/о н/о +14.1 +5.5 56 +11 +11 1016.6 1014.6
06 16.11 С 6
{15}
10 км 5/3 600 м
[Sc diur, vesp Ac lent Ci fib]
+14.8 +6.7 58 +13 +13 1018.8 1019.0 +13.9 0.0
09 16.11 СЗ 11
{13}
10 км 6/3 600 м
[Sc diur, vesp Ac lent Ci fib]
+17.0 +7.1 52 +15 +15 1019.2 1019.0
12 16.11 СЗ 11
{15}
10 км 5/3 600 м
[Cu hum Ac lent Cs]
+17.4 +7.4 52 +16 +16 1018.5 1019.0
15 16.11 СЗ 7
{14}
10 км 6/1 600 м
[Cu hum Ac trans Ci fib]
+15.8 +7.9 59 +14 +14 1019.1 1019.0
18 16.11 СЗ 4
{10}
10 км 8/1 600 м
[Cu hum Ac trans Cs]
+16.2 +8.1 59 +16 +16 1020.3 1020.0 +18.0
21 16.11
{7}
н/о осадки н/о +16.8 +7.4 54 1019.9 1017.9
00 17.11 ЮВ 5
{7}
н/о осадки н/о +16.6 +7.9 56 +16 +16 1019.5 1017.5 0.0
03 17.11 В 7
{9}
н/о осадки н/о +15.2 +11.8 80 +13 +13 1018.8 1016.8
06 17.11 ЮВ 9
{15}
7000 м слабый дождь {гроза} 9/9 300 м
[Sc]
+16.6 +13.0 79 +15 +15 1018.3 1018.0 +14.6 8
09 17.11 ЮВ 8
{16}
8000 м слабый дождь {гроза} 9/9 450 м
[Cu Sc]
+18.4 +15.8 85 +18 +18 1017.6 1018.0
12 17.11 ЮЗ 11
{18}
6000 м гроза, ливневой дождь 9/8 300 м
[Cb cap As trans]
+19.8 +15.4 76 +21 +21 комфорт 1016.3 1016.0 5
15 17.11 ЮЗ 5
{15}
10 км {гроза, дождь} 8/6 300 м
[St Ac und]
+18.0 +16.3 90 +18 +18 1017.5 1018.0
18 17.11 СВ 3
{7}
10 км {гроза, дождь} 6/5 360 м
[Frnb Ac und]
+18.8 +16.0 84 +20 +20 1018.5 1019.0 +20.6 18
21 17.11 Ю 6
{10}
н/о {осадки} н/о +19.9 +15.5 76 +22 +22 комфорт 1018.8 1016.8
00 18.11 ЮВ 6
{8}
н/о {осадки} н/о +19.6 +15.3 76 +21 +21 комфорт 1018.3 1016.3 0.0
03 18.11 ЮВ 6
{9}
н/о н/о +19.5 +14.9 75 +21 +21 комфорт 1017.8 1015.8
06 18.11 ЮВ 7
{10}
10 км в посл. час дождь 9/3 300 м
[Frnb Ac und]
+20.0 +15.6 76 +22 +22 комфорт 1017.9 1018.0 +18.8 0.0
09 18.11 ЮВ 7
{11}
10 км 9/4 360 м
[St Ac As]
+20.2 +15.9 76 +22 +23 комфорт 1018.0 1018.0
12 18.11 ЮВ 8
{10}
10 км 9/9 360 м
[St]
+20.4 +15.4 73 +23 +23 комфорт 1016.3 1016.0
15 18.11 ЮВ 8
{12}
10 км 9/5 420 м
[Cu Sc Ac As]
+19.8 +15.2 75 +21 +21 комфорт 1014.8 1015.0
18 18.11 ЮВ 7
{11}
10 км 9/4 540 м
[Cu Sc Ac As]
+20.0 +15.7 76 +22 +22 комфорт 1015.0 1015.0 +20.6
21 18.11 ЮВ 6
{9}
н/о н/о +19.9 +15.5 76 +22 +22 комфорт 1015.1 1013.1
00 19.11 ЮВ 6
{8}
н/о осадки н/о +19.8 +15.3 75 +22 +22 комфорт 1014.1 1012.1 0.0
03 19.11 ЮВ 8
{11}
н/о {осадки} н/о +20.0 +15.3 74 +22 +22 комфорт 1013.1 1011.1
06 19.11 Ю 8
{11}
10 км 8/1 600 м
[Cu med, cong Ac lent Ci fib]
+20.4 +15.4 73 +23 +23 комфорт 1014.4 1014.0 +19.6
09 19.11 Ю 7
{11}
10 км 6/1 600 м
[Cu med, cong Ac lent Ci fib]
+21.4 +17.0 76 +25 +26 комфорт 1015.5 1016.0
12 19.11 Ю 6
{9}
10 км 6/1 600 м
[Cu med, cong Ac lent Ci fib]
+22.0 +16.9 73 +26 +27 душно 1014.8 1015.0
15 19.11 ЮВ 4
{9}
10 км 8/1 600 м
[Cu med, cong Ac trans Ci fib]
+20.4 +16.9 80 +24 +24 комфорт 1015.6 1016.0
18 19.11 ЮВ 4
{7}
10 км 5/1 600 м
[Cu med, cong Ac trans Ci fib]
+20.2 +16.8 81 +23 +23 комфорт 1016.9 1017.0 +22.2
21 19.11 ЮВ 4
{7}
н/о н/о +19.9 +16.4 80 +23 +23 комфорт 1018.4 1016.5
00 20.11 ЮВ 3
{5}
н/о н/о +19.6 +17.5 88 +22 +22 комфорт 1018.7 1016.7
03 20.11 ЮВ 3
{4}
н/о н/о +19.6 +18.1 91 +22 +22 комфорт 1019.1 1017.1
06 20.11 Ю 3
{5}
10 км 3/1 300 м
[Cu hum Ac lent Ci fib]
+19.8 +17.6 87 +23 +23 комфорт 1020.1 1020.0 +10.0
09 20.11 Ю 4
{6}
10 км 5/3 300 м
[Cu med, cong Ac trans Ci fib]
+21.6 +17.5 77 +26 +28 душно 1021.0 1021.0
12 20.11 ЮВ 5
{5}
10 км 9/3 480 м
[Cu med, cong Ac trans Ci fib]
+21.0 +16.8 77 +25 +26 комфорт 1019.6 1020.0
15 20.11 В 4
{6}
10 км 8/1 480 м
[Cu med, cong Ac trans]
+20.2 +16.6 80 +23 +23 комфорт 1019.2 1019.0
18 20.11 В 4
{6}
10 км 9/1 540 м
[Cu med, cong Ac trans Cs]
+20.0 +16.9 82 +23 +23 комфорт 1018.9 1019.0 +22.0
21 20.11 ЮВ 6
{7}
н/о н/о +20.2 +18.5 90 +23 +23 комфорт 1018.3 1016.3

 

Местоположение метеостанции Karpathos (Греция): широта 35.52 долгота 27.25 высота над уровнем моря 6 м.

В архиве по умолчанию представлена погода в Karpathos за последнюю неделю. Архивные данные за месяц целиком и за предыдущие месяцы, начиная с января 2011 года, Вы можете получить, выбрав интересующий диапазон дат из раскрывающегося списка и нажав кнопку "Ввод!".


*Определитесь, кто Вы:
робот инопланетянин человек

Внимание! Время в таблицах - всемирное. Для получения местного времени необходимо прибавить поправку, которая в Karpathos равна 2 ч.

Смотрите также архив погоды в соседних городах и на ближайших метеорологических станциях:

Погода в Sitia (Греция) (110 км)
Погода в Rhodes (Греция) (123 км)
Погода в Datca (Турция) (137 км)
Погода в Kos Airport (Греция) (141 км)
Погода в Bodrum (Турция) (169 км)
Погода в Marmaris (Турция) (174 км)
Погода в Kasteli (Греция) (179 км)
Погода в Heraklion (Греция) (189 км)
Погода в Dalaman (Турция) (190 км)
Погода в Bodrum Milas (Турция) (194 км)

Пояснения к столбцам:

Ветер - указаны скорость ветра в м/с - средняя за 10 мин, порывы в срок и между сроками (в фигурных скобках) и направление, откуда дует ветер: С - северный, СВ - северо-восточный, В - восточный, ЮВ - юго-восточный, Ю - южный, ЮЗ - юго-западный, З - западный, СЗ - северо-западный.
Видимость - горизонтальная дальность видимости в метрах или километрах. При видимости от 1 до 10 км при отсутствии осадков обычно наблюдается дымка, при ухудшении видимости до 1 км и менее - туман. В сухую погоду видимость может ухудшаться дымом, пылью или мглою.
Явления - указаны атмосферные явления, наблюдавшиеся в срок или в последний час перед сроком; фигурными скобками обозначены явления, наблюдавшиеся между сроками (за 1-3 часа до срока); квадратными скобками обозначены град или гололедные отложения с указанием их диаметра в мм.
Облачность - указаны через наклонную черту общая и нижняя облачность в баллах и высота нижней границы облаков в метрах; квадратными скобками обозначены формы облаков: Ci - перистые, Cs - перисто-слоистые, Cc - перисто-кучевые, Ac - высококучевые, As - высокослоистые, Sc - слоисто-кучевые, Ns - слоисто-дождевые, Cu - кучевые, Cb - кучево-дождевые. Подробнее классификацию облаков см. в Атласе облаков (PDF).
T - Температура воздуха - температура, измеренная на высоте 2 м над землей.
Td - Температура точки росы - температура, при понижении до которой содержащийся в воздухе водяной пар достигнет насыщения.
f - Относительная влажность воздуха - влажноcть воздуха, измеренная на высоте 2 м над землей.
Te - Эффективная температура - температура, которую ощущает одетый по сезону человек в тени. Характеристика душности погоды. При расчете учитывается влияние влажности воздуха и скорости ветра на теплоощущения человека.
Tes - Эффективная температура на солнце - температура, которую ощущает человек, с поправкой на солнечный нагрев. Характеристика знойности погоды. Зависит от высоты солнца над горизонтом, облачности и скорости ветра. Ночью, в пасмурную погоду, а также при ветре 12 м/с и более поправка равна нулю.
P - Атмосферное давление - приведенное к уровню моря атмосферное давление.
Po - Атмосферное давление - измеренное на уровне метеостанции атмосферное давление.
Tmin - Минимальная температура - минимум температуры воздуха на высоте 2 м над землей.
Tmax - Максимальная температура - максимум температуры воздуха на высоте 2 м над землей.
R - Количество осадков - Количество выпавших осадков за период времени, мм. При наведении курсора мыши на число - период времени, за который выпало указанное количество осадков.
R24 - Количество осадков - Количество выпавших осадков за 24 часа, мм.
S - Снежный покров - Высота снежного покрова, см. При наведении курсора мыши на число - состояние снежного покрова и степень покрытия местности в баллах.